OK1KZE-6 Weather Reports


Display with metric or nautical units.
time (UTC)temp
F
wind
direction
speed
MPH
gust
MPH
rain 1hr
in
rain 24hr
in
rain mn
in
humidity
%
barometer
mb
20191019202004 52 158 14.0 18.0 0.00 0.00 0.00 82 1011.9
20191019201505 52 158 15.0 17.0 0.00 0.00 0.00 82 1011.7
20191019201005 53 158 13.0 18.0 0.00 0.00 0.00 82 1012.0
20191019200505 53 158 12.0 18.0 0.00 0.00 0.00 82 1011.6
20191019200005 53 158 13.0 17.0 0.00 0.00 0.00 82 1012.7
20191019195505 53 180 16.0 18.0 0.00 0.00 0.00 82 1011.9
20191019195006 53 180 12.0 17.0 0.00 0.00 0.00 82 1011.7
20191019194505 53 158 13.0 17.0 0.00 0.00 0.00 81 1012.3
20191019194005 53 180 15.0 17.0 0.00 0.00 0.00 81 1012.0
20191019193505 53 158 12.0 17.0 0.00 0.00 0.00 81 1012.7
20191019193006 53 180 15.0 17.0 0.00 0.00 0.00 81 1013.0
20191019192504 53 158 13.0 17.0 0.00 0.00 0.00 81 1012.4
20191019192005 53 158 11.0 19.0 0.00 0.00 0.00 81 1012.2
20191019191505 54 180 15.0 19.0 0.00 0.00 0.00 80 1011.7
20191019191005 54 158 12.0 17.0 0.00 0.00 0.00 80 1012.4
20191019190505 54 180 16.0 18.0 0.00 0.00 0.00 80 1011.6
20191019190007 54 180 17.0 18.0 0.00 0.00 0.00 80 1012.6
20191019185505 54 158 17.0 19.0 0.00 0.00 0.00 80 1012.4
20191019185005 54 180 15.0 18.0 0.00 0.00 0.00 80 1011.9
20191019184505 54 158 18.0 18.0 0.00 0.00 0.00 80 1012.7
20191019184005 54 180 15.0 18.0 0.00 0.00 0.00 79 1012.9
20191019183505 54 180 14.0 18.0 0.00 0.00 0.00 79 1012.0
20191019183007 54 158 12.0 15.0 0.00 0.00 0.00 79 1012.1
20191019182505 54 180 13.0 16.0 0.00 0.00 0.00 79 1012.1
20191019182004 54 180 14.0 15.0 0.00 0.00 0.00 79 1013.2
20191019181504 54 180 10.0 16.0 0.00 0.00 0.00 79 1012.2
20191019181003 54 180 13.0 17.0 0.00 0.00 0.00 79 1011.9
20191019180505 54 158 13.0 17.0 0.00 0.00 0.00 79 1012.1
20191019180004 55 180 13.0 16.0 0.00 0.00 0.00 78 1012.6
20191019175505 55 180 10.0 16.0 0.00 0.00 0.00 78 1013.4
20191019175004 55 180 13.0 16.0 0.00 0.00 0.00 78 1012.6
20191019174504 55 158 12.0 19.0 0.00 0.00 0.00 78 1012.7
20191019174008 55 180 16.0 18.0 0.00 0.00 0.00 78 1012.2
20191019173503 55 158 15.0 18.0 0.00 0.00 0.00 78 1012.2
20191019173006 56 180 16.0 20.0 0.00 0.00 0.00 77 1012.0
20191019172506 56 180 17.0 20.0 0.00 0.00 0.00 77 1012.2
20191019172004 56 180 13.0 17.0 0.00 0.00 0.00 77 1012.4
20191019171504 56 158 11.0 16.0 0.00 0.00 0.00 77 1012.1
20191019171004 56 158 12.0 14.0 0.00 0.00 0.00 77 1011.6
20191019170505 56 180 11.0 15.0 0.00 0.00 0.00 77 1012.3
20191019170005 56 180 11.0 16.0 0.00 0.00 0.00 77 1013.0
20191019165505 56 180 15.0 18.0 0.00 0.00 0.00 77 1013.0
20191019165005 56 158 11.0 16.0 0.00 0.00 0.00 77 1012.0
20191019164505 56 158 12.0 16.0 0.00 0.00 0.00 76 1013.2
20191019164005 56 180 13.0 17.0 0.00 0.00 0.00 76 1013.1
20191019163505 56 180 13.0 15.0 0.00 0.00 0.00 76 1013.2
20191019163006 57 158 13.0 16.0 0.00 0.00 0.00 76 1013.4
20191019162504 57 158 11.0 15.0 0.00 0.00 0.00 76 1012.6
20191019162007 57 158 7.0 14.0 0.00 0.00 0.00 75 1012.4
20191019161506 57 158 13.0 17.0 0.00 0.00 0.00 75 1012.2
20191019161005 57 158 13.0 16.0 0.00 0.00 0.00 75 1012.9
20191019160505 58 158 11.0 14.0 0.00 0.00 0.00 75 1013.0
20191019160006 58 180 12.0 12.0 0.00 0.00 0.00 75 1013.3
20191019155505 58 158 9.0 13.0 0.00 0.00 0.00 74 1012.6
20191019155006 58 158 10.0 11.0 0.00 0.00 0.00 74 1012.8
20191019154505 59 158 9.0 10.0 0.00 0.00 0.00 74 1013.6
20191019154006 59 180 6.0 10.0 0.00 0.00 0.00 74 1012.7
20191019153505 59 180 10.0 12.0 0.00 0.00 0.00 74 1012.1
20191019153005 59 180 9.0 10.0 0.00 0.00 0.00 74 1012.2
20191019152506 60 180 8.0 11.0 0.00 0.00 0.00 73 1013.1
20191019152006 60 180 6.0 8.0 0.00 0.00 0.00 73 1012.8
20191019151505 60 158 4.0 6.0 0.00 0.00 0.00 73 1012.3
20191019151005 61 158 5.0 7.0 0.00 0.00 0.00 73 1013.1
20191019150505 61 135 5.0 6.0 0.00 0.00 0.00 73 1013.0
20191019150005 61 112 4.0 6.0 0.00 0.00 0.00 72 1012.7
20191019145505 61 112 4.0 5.0 0.00 0.00 0.00 72 1012.2
20191019145006 62 68 4.0 5.0 0.00 0.00 0.00 72 1013.9
20191019144506 62 68 3.0 5.0 0.00 0.00 0.00 72 1013.5
20191019144006 62 90 5.0 6.0 0.00 0.00 0.00 72 1012.4
20191019143505 62 112 5.0 6.0 0.00 0.00 0.00 72 1012.4
20191019143005 62 68 2.0 4.0 0.00 0.00 0.00 72 1012.7
20191019142505 62 68 3.0 5.0 0.00 0.00 0.00 71 1012.3
20191019142005 62 68 4.0 5.0 0.00 0.00 0.00 71 1012.2
20191019141505 62 45 4.0 6.0 0.00 0.00 0.00 71 1011.9
20191019141006 62 45 2.0 6.0 0.00 0.00 0.00 70 1012.9
20191019140504 63 0 4.0 5.0 0.00 0.00 0.00 70 1013.5
20191019140005 63 0 5.0 6.0 0.00 0.00 0.00 71 1012.9
20191019135504 63 315 6.0 6.0 0.00 0.00 0.00 70 1011.8
20191019135006 63 270 0.0 2.0 0.00 0.00 0.00 71 1012.1
20191019134505 63 270 0.0 3.0 0.00 0.00 0.00 70 1011.9
20191019134005 63 0 2.0 3.0 0.00 0.00 0.00 70 1012.8
20191019133505 65 22 3.0 4.0 0.00 0.00 0.00 70 1013.1
20191019133005 66 315 4.0 5.0 0.00 0.00 0.00 68 1013.3
20191019132505 66 0 3.0 3.0 0.00 0.00 0.00 69 1012.4
20191019132004 65 22 0.0 4.0 0.00 0.00 0.00 70 1013.0
20191019131504 65 68 0.0 1.0 0.00 0.00 0.00 70 1011.7
20191019131005 64 68 0.0 3.0 0.00 0.00 0.00 70 1012.2
20191019130505 64 112 3.0 4.0 0.00 0.00 0.00 70 1012.6
20191019130007 64 135 4.0 6.0 0.00 0.00 0.00 70 1011.8
20191019125505 65 158 2.0 2.0 0.00 0.00 0.00 70 1012.3
20191019125005 63 338 2.0 5.0 0.00 0.00 0.00 71 1012.8
20191019124504 62 292 5.0 9.0 0.00 0.00 0.00 71 1012.7
20191019124005 63 0 4.0 7.0 0.00 0.00 0.00 71 1013.0
20191019123504 64 45 3.0 3.0 0.00 0.00 0.00 70 1012.4
20191019123005 66 68 0.0 4.0 0.00 0.00 0.00 69 1012.1
20191019122504 66 68 0.0 0.0 0.00 0.00 0.00 69 1012.3
20191019122005 65 68 0.0 3.0 0.00 0.00 0.00 69 1012.4
20191019121505 65 45 3.0 5.0 0.00 0.00 0.00 69 1011.5
20191019121005 66 68 4.0 6.0 0.00 0.00 0.00 69 1012.0
20191019120505 69 112 6.0 6.0 0.00 0.00 0.00 67 1012.2
20191019120004 69 22 4.0 6.0 0.00 0.00 0.00 67 1011.7
20191019115505 69 0 4.0 5.0 0.00 0.00 0.00 67 1012.3
20191019115004 68 270 0.0 8.0 0.00 0.00 0.00 68 1012.1
20191019114506 66 292 8.0 11.0 0.00 0.00 0.00 69 1012.6
20191019114006 65 270 4.0 12.0 0.00 0.00 0.00 69 1013.2
20191019113505 66 292 6.0 9.0 0.00 0.00 0.00 69 1013.0
20191019113008 67 338 4.0 6.0 0.00 0.00 0.00 69 1012.1
20191019112505 67 338 4.0 9.0 0.00 0.00 0.00 69 1012.8
20191019112004 66 338 7.0 9.0 0.00 0.00 0.00 70 1013.0
20191019111506 66 22 2.0 4.0 0.00 0.00 0.00 70 1012.8
20191019111006 66 0 3.0 5.0 0.00 0.00 0.00 70 1012.0
20191019110506 67 45 5.0 6.0 0.00 0.00 0.00 69 1012.4
20191019110008 69 68 3.0 6.0 0.00 0.00 0.00 69 1013.3
20191019105505 67 68 4.0 6.0 0.00 0.00 0.00 69 1012.7
20191019105005 67 112 4.0 6.0 0.00 0.00 0.00 70 1012.2
20191019104505 67 112 3.0 5.0 0.00 0.00 0.00 70 1012.9
20191019104004 65 90 4.0 5.0 0.00 0.00 0.00 72 1012.2
20191019103505 65 22 4.0 6.0 0.00 0.00 0.00 72 1012.1
20191019103006 65 68 5.0 7.0 0.00 0.00 0.00 71 1012.3
20191019102504 66 45 4.0 6.0 0.00 0.00 0.00 71 1012.6
20191019102004 65 22 3.0 5.0 0.00 0.00 0.00 72 1012.4
20191019101504 64 45 4.0 6.0 0.00 0.00 0.00 73 1012.7
20191019101005 65 135 4.0 5.0 0.00 0.00 0.00 72 1012.6
20191019100506 66 68 3.0 6.0 0.00 0.00 0.00 72 1012.1
20191019100006 66 68 0.0 5.0 0.00 0.00 0.00 72 1012.8
20191019095505 65 68 5.0 6.0 0.00 0.00 0.00 73 1012.2
20191019095006 67 90 1.0 4.0 0.00 0.00 0.00 72 1012.4
20191019094505 65 338 2.0 6.0 0.00 0.00 0.00 75 1012.6
20191019094005 65 22 4.0 6.0 0.00 0.00 0.00 74 1011.9
20191019093505 63 135 4.0 11.0 0.00 0.00 0.00 74 1012.7
20191019093005 62 112 8.0 11.0 0.00 0.00 0.00 74 1012.2
20191019092505 62 90 7.0 9.0 0.00 0.00 0.00 75 1011.6
20191019092006 59 90 7.0 7.0 0.00 0.00 0.00 77 1012.9
20191019091508 58 68 5.0 6.0 0.00 0.00 0.00 78 1012.6
20191019091005 58 112 5.0 6.0 0.00 0.00 0.00 77 1012.9
20191019090506 59 90 3.0 5.0 0.00 0.00 0.00 78 1013.0
20191019090006 59 68 3.0 7.0 0.00 0.00 0.00 78 1013.5
20191019085505 61 68 5.0 6.0 0.00 0.00 0.00 77 1012.9
20191019085005 62 112 4.0 5.0 0.00 0.00 0.00 76 1012.3
20191019084505 61 338 0.0 0.0 0.00 0.00 0.00 77 1012.9
20191019084006 59 338 0.0 2.0 0.00 0.00 0.00 79 1013.2
20191019083505 57 338 3.0 5.0 0.00 0.00 0.00 79 1012.7
20191019083008 59 338 4.0 5.0 0.00 0.00 0.00 78 1012.6
20191019082505 60 338 4.0 5.0 0.00 0.00 0.00 78 1013.4
20191019082005 59 338 2.0 3.0 0.00 0.00 0.00 79 1013.2
20191019081506 56 338 2.0 5.0 0.00 0.00 0.00 80 1013.4
20191019081005 55 338 4.0 6.0 0.00 0.00 0.00 80 1012.8
20191019080506 57 338 4.0 4.0 0.00 0.00 0.00 81 1012.7
20191019080005 57 338 0.0 0.0 0.00 0.00 0.00 81 1012.9
20191019075505 56 338 0.0 3.0 0.00 0.00 0.00 81 1013.5
20191019075005 55 158 3.0 3.0 0.00 0.00 0.00 82 1013.3
20191019074508 54 158 4.0 5.0 0.00 0.00 0.00 82 1013.7
20191019074005 53 180 5.0 8.0 0.00 0.00 0.00 82 1012.9
20191019073507 53 180 8.0 9.0 0.00 0.00 0.00 82 1013.3
20191019073007 53 158 7.0 9.0 0.00 0.00 0.00 82 1013.1
20191019072506 52 180 6.0 9.0 0.00 0.00 0.00 83 1013.3
20191019072006 52 180 8.0 10.0 0.00 0.00 0.00 83 1013.3
20191019071506 52 180 8.0 10.0 0.00 0.00 0.00 83 1013.0
20191019071005 52 180 9.0 10.0 0.00 0.00 0.00 83 1013.4
20191019070505 52 158 7.0 10.0 0.00 0.00 0.00 83 1013.8
20191019070006 52 158 7.0 11.0 0.00 0.00 0.00 84 1013.3
20191019065505 52 180 11.0 12.0 0.00 0.00 0.00 84 1013.9
20191019065004 52 180 10.0 12.0 0.00 0.00 0.00 83 1014.0
20191019064505 52 180 11.0 11.0 0.00 0.00 0.00 84 1013.4
20191019064005 52 158 9.0 12.0 0.00 0.00 0.00 83 1013.1
20191019063506 51 180 10.0 11.0 0.00 0.00 0.00 83 1012.8
20191019063005 51 158 10.0 13.0 0.00 0.00 0.00 83 1013.6
20191019062506 51 180 11.0 12.0 0.00 0.00 0.00 83 1014.0
20191019062006 51 180 8.0 11.0 0.00 0.00 0.00 83 1013.6
20191019061505 52 180 10.0 13.0 0.00 0.00 0.00 83 1014.1
20191019061005 52 180 10.0 13.0 0.00 0.00 0.00 83 1012.9
20191019060505 52 180 12.0 13.0 0.00 0.00 0.00 83 1014.1
20191019060006 51 180 11.0 13.0 0.00 0.00 0.00 83 1013.2
20191019055506 51 180 12.0 13.0 0.00 0.00 0.00 83 1013.2
20191019055006 51 158 11.0 13.0 0.00 0.00 0.00 83 1013.5
20191019054506 51 180 11.0 13.0 0.00 0.00 0.00 83 1013.1
20191019054006 52 180 11.0 14.0 0.00 0.00 0.00 83 1013.8
20191019053505 51 180 13.0 14.0 0.00 0.00 0.00 83 1012.8
20191019053005 51 180 12.0 15.0 0.00 0.00 0.00 83 1012.9
20191019052505 51 180 15.0 16.0 0.00 0.00 0.00 83 1013.3
20191019052006 51 180 15.0 17.0 0.00 0.00 0.00 83 1013.7
20191019051505 51 180 13.0 16.0 0.00 0.00 0.00 83 1012.8
20191019051004 51 158 11.0 15.0 0.00 0.00 0.00 83 1014.0
20191019050504 51 180 13.0 14.0 0.00 0.00 0.00 83 1013.8
20191019050005 51 180 12.0 13.0 0.00 0.00 0.00 83 1013.6
20191019045505 51 180 10.0 12.0 0.00 0.00 0.00 83 1013.3
20191019045005 51 180 12.0 13.0 0.00 0.00 0.00 83 1013.6
20191019044505 51 180 11.0 13.0 0.00 0.00 0.00 83 1014.5
20191019044004 51 180 11.0 14.0 0.00 0.00 0.00 83 1013.7
20191019043505 51 180 11.0 14.0 0.00 0.00 0.00 83 1014.5
20191019043005 51 180 12.0 13.0 0.00 0.00 0.00 83 1013.6
20191019042506 51 180 11.0 13.0 0.00 0.00 0.00 82 1013.5
20191019042006 51 202 10.0 13.0 0.00 0.00 0.00 83 1014.1
20191019041505 51 180 9.0 13.0 0.00 0.00 0.00 82 1013.0
20191019041005 51 180 11.0 14.0 0.00 0.00 0.00 82 1013.6
20191019040505 51 180 13.0 15.0 0.00 0.00 0.00 82 1013.5
20191019040007 51 180 12.0 14.0 0.00 0.00 0.00 82 1013.4
20191019035504 51 180 13.0 14.0 0.00 0.00 0.00 82 1014.2
20191019035003 52 180 11.0 13.0 0.00 0.00 0.00 82 1013.7
20191019034502 52 180 13.0 13.0 0.00 0.00 0.00 82 1014.2
20191019034002 52 180 12.0 13.0 0.00 0.00 0.00 82 1013.6
20191019033501 51 180 12.0 13.0 0.00 0.00 0.00 82 1014.0
20191019033005 51 202 11.0 13.0 0.00 0.00 0.00 82 1014.3
20191019032502 52 180 8.0 13.0 0.00 0.00 0.00 81 1013.8
20191019032003 51 202 9.0 11.0 0.00 0.00 0.00 81 1013.4
20191019031502 52 202 4.0 8.0 0.00 0.00 0.00 81 1014.3
20191019031003 51 202 8.0 10.0 0.00 0.00 0.00 81 1014.0
20191019030502 51 180 10.0 13.0 0.00 0.00 0.00 81 1013.5
20191019030003 52 180 11.0 13.0 0.00 0.00 0.00 81 1014.3
20191019025502 52 180 11.0 15.0 0.00 0.00 0.00 81 1013.9
20191019025003 52 180 12.0 14.0 0.00 0.00 0.00 81 1014.2
20191019024503 52 180 13.0 14.0 0.00 0.00 0.00 81 1013.7
20191019024002 52 158 8.0 14.0 0.00 0.00 0.00 81 1013.9
20191019023507 51 158 12.0 14.0 0.00 0.00 0.00 81 1013.6
20191019023001 52 158 14.0 15.0 0.00 0.00 0.00 80 1013.6
20191019022503 52 180 12.0 14.0 0.00 0.00 0.00 80 1014.1
20191019022003 53 180 12.0 13.0 0.00 0.00 0.00 80 1014.2
20191019021503 53 180 13.0 13.0 0.00 0.00 0.00 80 1014.3
20191019021003 53 180 13.0 14.0 0.00 0.00 0.00 80 1013.9
20191019020503 53 180 12.0 13.0 0.00 0.00 0.00 80 1013.3
20191019020003 52 180 11.0 12.0 0.00 0.00 0.00 80 1013.5
20191019015503 53 180 11.0 12.0 0.00 0.00 0.00 80 1013.4
20191019015003 53 202 11.0 12.0 0.00 0.00 0.00 79 1014.2
20191019014502 53 202 10.0 12.0 0.00 0.00 0.00 79 1013.9
20191019014003 53 202 8.0 12.0 0.00 0.00 0.00 79 1014.3
20191019013504 53 180 10.0 12.0 0.00 0.00 0.00 79 1013.7
20191019013004 53 180 11.0 13.0 0.00 0.00 0.00 79 1013.5
20191019012504 53 180 11.0 13.0 0.00 0.00 0.00 79 1013.9
20191019012004 53 180 13.0 13.0 0.00 0.00 0.00 79 1013.8
20191019011504 53 180 12.0 13.0 0.00 0.00 0.00 79 1013.8
20191019011004 53 180 11.0 13.0 0.00 0.00 0.00 79 1014.3
20191019010504 53 180 10.0 12.0 0.00 0.00 0.00 79 1013.9
20191019010004 53 180 12.0 12.0 0.00 0.00 0.00 78 1014.2
20191019005504 54 202 9.0 11.0 0.00 0.00 0.00 78 1014.2
20191019005004 54 180 9.0 10.0 0.00 0.00 0.00 78 1014.4
20191019004504 54 202 8.0 11.0 0.00 0.00 0.00 78 1014.1
20191019004004 54 180 8.0 10.0 0.00 0.00 0.00 78 1014.5
20191019003504 54 180 9.0 10.0 0.00 0.00 0.00 78 1014.9
20191019003004 54 202 8.0 8.0 0.00 0.00 0.00 78 1013.9
20191019002504 54 202 7.0 10.0 0.00 0.00 0.00 78 1014.4
20191019002004 54 180 10.0 11.0 0.00 0.00 0.00 78 1014.4
20191019001503 54 180 10.0 11.0 0.00 0.00 0.00 77 1014.2
20191019001004 54 180 10.0 11.0 0.00 0.00 0.00 77 1014.3
20191019000504 54 202 10.0 11.0 0.00 0.00 0.00 77 1014.1
20191019000005 54 180 9.0 11.0 0.00 0.00 0.00 77 1014.5
20191018235503 54 180 10.0 10.0 0.00 0.00 0.00 77 1014.0
20191018235003 54 180 9.0 10.0 0.00 0.00 0.00 77 1014.6
20191018234504 55 180 9.0 10.0 0.00 0.00 0.00 76 1013.9
20191018234004 55 202 7.0 9.0 0.00 0.00 0.00 76 1014.5
20191018233504 55 202 8.0 9.0 0.00 0.00 0.00 76 1014.2
20191018233004 56 202 8.0 9.0 0.00 0.00 0.00 76 1014.3
20191018232504 55 202 7.0 8.0 0.00 0.00 0.00 76 1013.3
20191018232004 55 180 7.0 8.0 0.00 0.00 0.00 76 1013.3
20191018231504 55 202 7.0 10.0 0.00 0.00 0.00 76 1013.6
20191018231004 55 180 8.0 10.0 0.00 0.00 0.00 76 1014.0
20191018230505 55 180 9.0 10.0 0.00 0.00 0.00 76 1014.1
20191018230005 55 180 9.0 10.0 0.00 0.00 0.00 76 1013.9
20191018225504 55 180 8.0 10.0 0.00 0.00 0.00 76 1013.2
20191018225004 55 180 8.0 9.0 0.00 0.00 0.00 76 1013.3
20191018224504 55 180 9.0 9.0 0.00 0.00 0.00 75 1013.9
20191018224006 55 158 9.0 10.0 0.00 0.00 0.00 76 1013.0
20191018223504 55 158 9.0 11.0 0.00 0.00 0.00 75 1013.3
20191018223006 54 158 8.0 11.0 0.00 0.00 0.00 75 1013.9
20191018222504 54 180 10.0 11.0 0.00 0.00 0.00 76 1013.7
20191018222004 54 180 10.0 11.0 0.00 0.00 0.00 75 1014.1
20191018221504 54 180 10.0 11.0 0.00 0.00 0.00 75 1013.7
20191018221004 55 180 10.0 12.0 0.00 0.00 0.00 75 1014.2
20191018220504 55 180 10.0 10.0 0.00 0.00 0.00 75 1013.6
20191018220005 55 180 7.0 9.0 0.00 0.00 0.00 74 1013.5
20191018215505 56 225 5.0 8.0 0.00 0.00 0.00 74 1014.5
20191018215004 56 225 4.0 6.0 0.00 0.00 0.00 74 1013.8
20191018214503 56 225 3.0 8.0 0.00 0.00 0.00 74 1013.7
20191018214004 56 225 5.0 7.0 0.00 0.00 0.00 74 1013.8
20191018213504 56 225 5.0 7.0 0.00 0.00 0.00 74 1013.2
20191018213005 56 248 4.0 10.0 0.00 0.00 0.00 74 1014.2
20191018212505 56 225 4.0 10.0 0.00 0.00 0.00 74 1013.4
20191018212004 56 248 5.0 10.0 0.00 0.00 0.00 74 1013.5
20191018211504 56 225 5.0 10.0 0.00 0.00 0.00 73 1013.1
20191018211005 56 225 3.0 9.0 0.00 0.00 0.00 73 1014.2
20191018210504 56 225 9.0 12.0 0.00 0.00 0.00 73 1013.6
20191018210006 56 202 10.0 13.0 0.00 0.00 0.00 73 1013.6
20191018205504 57 248 6.0 10.0 0.00 0.00 0.00 73 1014.0
20191018205005 57 248 5.0 13.0 0.00 0.00 0.00 73 1014.3
20191018204504 57 248 5.0 10.0 0.00 0.00 0.00 73 1013.9
20191018204007 57 248 5.0 7.0 0.00 0.00 0.00 73 1013.4
20191018203504 57 225 5.0 8.0 0.00 0.00 0.00 72 1013.2
20191018203004 58 225 4.0 9.0 0.00 0.00 0.00 72 1013.7
20191018202504 58 248 8.0 13.0 0.00 0.00 0.00 72 1013.3